Showing default

METHANESAT, 59101

Orbit data source: Space-Track

METHANESAT, 59101 is a payload satellite owned by MethaneSAT (US) in SSO that was launched on Mon, 04 Mar 2024 UTC via an FALCON 9 launch vehicle from the Air Force Western Test Range (AFWTR). Payload-class satellites include a variety of spacecraft equipped with specific instruments for various scientific and technological missions. These include communications satellites like Starlink; space stations such as the ISS; scientific satellites like the Hubble; Earth observation satellites from companies like Planet Labs, Umbra, and HawkEye 360; GPS; miniature CubeSats for education and research; and military/defense satellites.

Loading next visibility...
Identifier
59101, 2024-043D
Orbit
SSO
Country
Flag of USUS
Related business
Manufacturer
Blue Canyon
Mission
Non-operational Amateur Earth Obs Sci
Bus & Motor
SATURN X-SAT, NANO-R3
Mass
362 kg wet, 326 kg dry
Launch date (UTC)
2024-03-04 (3 years ago)
Launch vehicle
FALCON 9
Launch site
Air Force Western Test Range (AFWTR)
Object type
Payload
Rocket body
Debris
Shape & HBR
Box + 2 Pan, 5.5 m
Radar Cross Section
2.251 m², Large (>1 m²)

Expand to show TLE details & history
Last TLE update: 9 hours ago

TLE from 9 hours ago
0 METHANESAT
1 59101U 24043D   26254.61304151  .00000916  00000-0  81736-4 0  9994
2 59101  97.8566  26.1606 0011332  80.0101 280.2399 14.98433528137595
Epoch: 2026-09-11T14:42Z
TLE epoch observation values (Epoch: 2026-09-11T14:42:46.786Z)
Latitude
-0.00006°
Longitude
174.83178°
Altitude
573.392 km
Speed
7.575 km/s
True Right ascension
01h 44m 38s
True Declination
0° 00' 00"
Sunlit
Object was in full shadow at epoch
Visualization orbit readout
Latitude
Unknown
Longitude
Unknown
Altitude
Unknown
Speed
Unknown
Apparent Right ascension
Unknown
Apparent Declination
Unknown
Sunlit
N/A
Visualization observer readout
Local Sidereal Time
15:36:19
Azimuth
Unknown
Elevation
Unknown
Doppler factor
Unknown
Orbital elements
Apogee altitude
576.622 km
Perigee altitude
560.878 km
Semi-major axis
6,946.887 km
Eccentricity
0.00113
Inclination
97.8566°
RAAN
26.1606°
Arg. of periapsis
80.0101°
True anomaly
280.11208°
Mean anomaly
280.2399°
Eccentric anomaly
280.17599°
Mean motion
3.7485 °/min
Orbital period
96.04 mins
BSTAR
0.000081736
Loading maneuver chart data...
Computing Atmospheric mass density...
Loading historical data...
Loading historical data...
Loading historical data...
Loading historical data...
Loading historical data...
Loading historical data...
Loading historical data...

Documentation

Showing up to 5 results
|